Stations météo

Publicité
Charleroi/Gosselies, Belgique (6449): Température de l'air & dewpoint: 13.09.2020 11:00:00 - 19.09.2020 11:00:00 (CEST)Charleroi/Gosselies, Belgique (6449): Vitesse du vent & gusts: 13.09.2020 11:00:00 - 19.09.2020 11:00:00 (CEST)Charleroi/Gosselies, Belgique (6449): Direction du vent: 13.09.2020 11:00:00 - 19.09.2020 11:00:00 (CEST)Charleroi/Gosselies, Belgique (6449): reduced air pressure: 13.09.2020 11:00:00 - 19.09.2020 11:00:00 (CEST)Charleroi/Gosselies, Belgique (6449): visibility: 13.09.2020 11:00:00 - 19.09.2020 11:00:00 (CEST)
Date & Time tt [°C] td [°C] ff [km/h] ff [knt] fx [km/h] fx [knt] dd ppp [hPa] vv [km]
19.09.2020 11:00:00 21,1 11,2 9 5 - - SE 1017,1 10
19.09.2020 10:00:00 18,0 10,1 9 5 14 8 SE 1017,3 10
19.09.2020 09:00:00 15,8 8,8 9 5 14 8 E 1017,1 10
19.09.2020 08:00:00 14,0 8,4 9 5 - - E 1017,3 10
19.09.2020 07:00:00 13,5 8,2 11 6 14 8 ENE 1017,0 10
19.09.2020 06:00:00 13,3 8,4 9 5 18 10 ENE 1017,2 10
19.09.2020 05:00:00 13,5 8,6 11 6 - - ENE 1017,3 10
19.09.2020 04:00:00 13,8 9,0 13 7 18 10 NE 1017,7 10
19.09.2020 03:00:00 14,1 8,9 11 6 14 8 NE 1018,4 10
19.09.2020 02:00:00 15,0 9,0 9 5 - - ENE 1018,6 10
19.09.2020 01:00:00 16,8 9,4 15 8 22 12 E 1018,9 10
19.09.2020 00:00:00 16,3 10,0 15 8 18 10 ENE 1019,3 10
18.09.2020 23:00:00 18,2 10,1 13 7 - - E 1019,2 10
18.09.2020 22:00:00 18,5 10,0 15 8 29 16 ENE 1019,3 10
18.09.2020 21:00:00 19,6 10,3 18 10 25 14 NE 1018,6 10
18.09.2020 20:00:00 20,7 10,6 21 11 - - NE 1018,5 10
18.09.2020 19:00:00 22,6 10,6 24 13 43 23 NE 1018,3 10
18.09.2020 18:00:00 23,7 10,5 29 16 43 23 ENE 1018,5 10
18.09.2020 17:00:00 24,0 10,4 24 13 - - NE 1019,0 10
18.09.2020 16:00:00 23,6 10,5 26 14 36 19 NE 1019,5 10
18.09.2020 15:00:00 23,4 9,9 26 14 36 19 NE 1020,2 10
18.09.2020 14:00:00 22,1 9,3 21 11 - - NE 1020,9 10
18.09.2020 13:00:00 20,1 8,5 18 10 29 16 ENE 1021,5 10
18.09.2020 12:00:00 17,2 7,0 21 11 29 16 ENE 1022,1 10
18.09.2020 11:00:00 14,7 6,5 18 10 - - ENE 1022,6 10
18.09.2020 10:00:00 12,3 6,2 21 11 25 14 NE 1022,8 10
18.09.2020 09:00:00 9,8 6,0 15 8 18 10 ENE 1023,0 10
18.09.2020 08:00:00 8,5 6,0 13 7 - - ENE 1023,1 10
18.09.2020 07:00:00 8,9 5,9 15 8 18 10 ENE 1023,1 10
18.09.2020 06:00:00 8,7 5,9 11 6 18 10 NE 1023,4 10
18.09.2020 05:00:00 8,6 5,7 13 7 - - NE 1023,7 10
18.09.2020 04:00:00 9,5 5,9 13 7 18 10 ENE 1023,7 10
18.09.2020 03:00:00 9,5 5,6 9 5 22 12 ENE 1024,2 10
18.09.2020 02:00:00 11,1 5,6 16 9 - - NE 1024,6 10
18.09.2020 01:00:00 11,5 5,3 15 8 22 12 NE 1024,9 10
18.09.2020 00:00:00 12,5 5,4 18 10 29 16 ENE 1025,1 10
17.09.2020 23:00:00 13,3 5,1 21 11 - - NE 1025,4 10
17.09.2020 22:00:00 14,3 5,3 21 11 29 16 NE 1025,2 10
17.09.2020 21:00:00 15,0 5,5 21 11 32 18 NE 1025,0 10
17.09.2020 20:00:00 16,8 4,8 24 13 - - NE 1024,6 10
17.09.2020 19:00:00 18,2 4,9 28 15 40 21 NE 1024,4 10
17.09.2020 18:00:00 19,3 5,1 29 16 40 21 NE 1024,3 10
17.09.2020 17:00:00 19,8 4,4 24 13 - - NE 1024,6 10
17.09.2020 16:00:00 19,7 4,8 28 15 40 21 NE 1025,2 10
17.09.2020 15:00:00 19,1 4,0 26 14 43 23 ENE 1025,9 10
17.09.2020 14:00:00 18,1 4,7 29 16 - - NE 1026,5 10
17.09.2020 13:00:00 16,2 5,2 24 13 36 19 NE 1027,0 10
17.09.2020 12:00:00 14,8 6,6 22 12 36 19 NE 1027,3 10
17.09.2020 11:00:00 12,9 7,3 26 14 - - NE 1027,7 10
17.09.2020 10:00:00 12,8 8,5 26 14 36 19 NE 1027,3 10
17.09.2020 09:00:00 11,9 9,2 21 11 32 18 NE 1027,2 10
17.09.2020 08:00:00 11,8 9,3 22 12 - - NE 1027,2 10
17.09.2020 07:00:00 12,4 9,6 22 12 36 19 NE 1026,8 10
17.09.2020 06:00:00 13,2 10,3 24 13 40 21 NE 1026,6 10
17.09.2020 05:00:00 13,8 11,2 24 13 - - NE 1026,3 10
17.09.2020 04:00:00 15,1 12,2 25 14 36 19 NE 1026,1 8
17.09.2020 03:00:00 15,6 13,5 24 13 36 19 NE 1026,0 8
17.09.2020 02:00:00 16,1 14,3 21 11 - - NE 1025,8 8
17.09.2020 01:00:00 16,8 15,1 18 10 29 16 NNE 1025,5 8
17.09.2020 00:00:00 17,5 14,0 21 11 36 19 NNE 1025,0 10
16.09.2020 23:00:00 18,6 13,5 24 13 - - NNE 1024,2 10
16.09.2020 22:00:00 19,5 13,6 21 11 29 16 NNE 1023,4 10
16.09.2020 21:00:00 20,3 14,3 15 8 25 14 NNE 1022,6 10
16.09.2020 20:00:00 22,1 13,1 15 8 - - NNE 1021,6 10
16.09.2020 19:00:00 24,3 11,3 15 8 29 16 N 1021,0 10
16.09.2020 18:00:00 26,4 11,9 18 10 32 18 N 1020,2 10
16.09.2020 17:00:00 27,5 12,2 21 11 - - N 1019,9 10
16.09.2020 16:00:00 28,2 15,4 18 10 29 16 N 1019,9 10
16.09.2020 15:00:00 27,4 14,2 13 7 25 14 N 1020,1 10
16.09.2020 14:00:00 28,0 13,6 15 8 - - N 1020,1 10
16.09.2020 13:00:00 26,8 14,8 9 5 22 12 N 1020,0 10
16.09.2020 12:00:00 25,4 14,4 8 4 11 6 NNE 1020,2 10
16.09.2020 11:00:00 24,5 13,8 4 2 - - - 1020,1 10
16.09.2020 10:00:00 19,7 14,6 2 1 7 4 - 1020,4 10
16.09.2020 09:00:00 20,1 15,3 2 1 4 2 - 1020,0 10
16.09.2020 08:00:00 17,4 13,6 4 2 - - WNW 1020,0 10
16.09.2020 07:00:00 17,5 13,4 4 2 7 4 - 1019,4 10
16.09.2020 06:00:00 18,8 13,4 0 0 7 4 N 1019,0 10
16.09.2020 05:00:00 18,5 13,6 4 2 - - SSW 1019,2 10
16.09.2020 04:00:00 19,2 13,4 4 2 7 4 - 1019,4 10
16.09.2020 03:00:00 20,5 12,7 5 3 14 8 NNE 1019,3 10
16.09.2020 02:00:00 20,6 13,4 8 4 - - N 1019,2 10
16.09.2020 01:00:00 22,3 13,1 4 2 7 4 - 1019,2 10
16.09.2020 00:00:00 22,9 12,7 2 1 14 8 - 1019,0 10
15.09.2020 23:00:00 26,0 11,7 9 5 - - SE 1018,6 10
15.09.2020 22:00:00 26,0 10,9 2 1 11 6 - 1018,5 10
15.09.2020 21:00:00 27,1 12,1 4 2 11 6 - 1017,9 10
15.09.2020 20:00:00 30,0 11,0 5 3 - - W 1017,4 10
15.09.2020 19:00:00 32,5 10,3 15 8 22 12 WSW 1017,1 10
15.09.2020 18:00:00 33,3 8,5 11 6 29 16 W 1016,9 10
15.09.2020 17:00:00 34,6 9,9 13 7 - - SW 1017,0 10
15.09.2020 16:00:00 32,7 9,0 15 8 25 14 SW 1017,6 10
15.09.2020 15:00:00 33,8 8,5 13 7 18 10 SSW 1017,8 10
15.09.2020 14:00:00 33,3 10,3 8 4 - - - 1018,3 10
15.09.2020 13:00:00 32,1 11,6 4 2 14 8 - 1018,7 10
15.09.2020 12:00:00 29,5 12,5 8 4 14 8 S 1019,4 10
15.09.2020 11:00:00 26,7 12,9 8 4 - - SSE 1019,7 10
15.09.2020 10:00:00 23,7 12,2 8 4 14 8 SSE 1019,6 10
15.09.2020 09:00:00 21,7 11,6 9 5 14 8 SSE 1019,6 10
15.09.2020 08:00:00 20,2 11,0 5 3 - - SSW 1019,6 10
15.09.2020 07:00:00 20,2 10,5 11 6 18 10 SSE 1019,5 10
15.09.2020 06:00:00 20,3 10,4 13 7 18 10 SSE 1019,6 10
15.09.2020 05:00:00 20,5 10,8 13 7 - - SSE 1019,7 10
15.09.2020 04:00:00 20,9 11,1 9 5 11 6 S 1019,9 10
15.09.2020 03:00:00 21,4 11,5 8 4 11 6 SSE 1020,2 10
15.09.2020 02:00:00 21,1 12,3 8 4 - - SE 1020,5 10
15.09.2020 01:00:00 21,9 12,3 8 4 11 6 SE 1020,8 10
15.09.2020 00:00:00 22,2 12,6 2 1 4 2 SE 1020,8 10
14.09.2020 23:00:00 24,0 11,4 4 2 - - SE 1020,9 10
14.09.2020 22:00:00 26,3 10,8 8 4 11 6 SSE 1020,8 10
14.09.2020 21:00:00 25,0 11,2 5 3 14 8 SSE 1020,5 10
14.09.2020 20:00:00 28,0 10,3 5 3 - - S 1020,1 10
14.09.2020 19:00:00 30,1 9,1 8 4 18 10 S 1020,1 10
14.09.2020 18:00:00 30,9 10,1 9 5 18 10 SE 1020,3 10
14.09.2020 17:00:00 31,3 9,6 8 4 - - SSE 1020,8 10
14.09.2020 16:00:00 31,0 9,7 9 5 25 14 S 1021,5 10
14.09.2020 15:00:00 30,3 8,9 13 7 22 12 S 1022,1 10
14.09.2020 14:00:00 29,9 10,0 9 5 - - - 1022,6 10
14.09.2020 13:00:00 28,0 12,1 9 5 18 10 SSE 1023,2 10
14.09.2020 12:00:00 25,6 12,1 8 4 14 8 SSE 1023,7 10
14.09.2020 11:00:00 22,3 11,4 8 4 - - SSE 1024,2 10
14.09.2020 10:00:00 20,0 10,6 8 4 11 6 SE 1024,2 10
14.09.2020 09:00:00 16,9 10,3 0 0 11 6 N 1024,4 10
14.09.2020 08:00:00 15,4 10,3 4 2 - - - 1024,3 10
14.09.2020 07:00:00 14,4 11,3 4 2 7 4 - 1024,1 10
14.09.2020 06:00:00 14,0 12,0 4 2 4 2 ESE 1024,5 10
14.09.2020 05:00:00 14,5 12,1 4 2 - - ESE 1024,6 10
14.09.2020 04:00:00 14,8 13,0 2 1 7 4 - 1025,0 10
14.09.2020 03:00:00 15,8 12,5 2 1 4 2 - 1025,0 10
14.09.2020 02:00:00 16,3 12,1 4 2 - - ENE 1025,3 10
14.09.2020 01:00:00 16,5 11,7 4 2 7 4 E 1025,6 10
14.09.2020 00:00:00 17,5 12,3 5 3 11 6 ENE 1025,6 10
13.09.2020 23:00:00 18,1 12,1 8 4 - - E 1025,7 10
13.09.2020 22:00:00 18,9 12,1 5 3 7 4 ENE 1025,7 10
13.09.2020 21:00:00 19,5 12,1 5 3 7 4 NNE 1025,3 10
13.09.2020 20:00:00 21,9 12,1 5 3 - - N 1024,8 10
13.09.2020 19:00:00 24,4 11,3 8 4 14 8 N 1024,5 10
13.09.2020 18:00:00 25,1 11,4 2 1 18 10 - 1024,5 10
13.09.2020 17:00:00 25,2 12,0 5 3 - - SSW 1024,7 10
13.09.2020 16:00:00 24,5 11,3 8 4 22 12 SW 1025,3 10
13.09.2020 15:00:00 23,9 11,3 13 7 25 14 - 1025,8 10
13.09.2020 14:00:00 23,1 10,5 13 7 - - WSW 1026,2 10
13.09.2020 13:00:00 21,0 11,1 11 6 22 12 SW 1026,6 10
13.09.2020 12:00:00 19,4 11,6 13 7 22 12 SSW 1027,0 10
13.09.2020 11:00:00 17,7 11,8 11 6 - - SSW 1027,1 10

tt = Température de l'air
td = dewpoint
ff = Vitesse du vent
fx = gusts
dd = Direction du vent
ppp = reduced air pressure
vv = visibility

stations d'obs. à proximité